Find Starlink 30288

NORAD ID: 57698 Int'l Des: 2023-129 Owner: SPXS Country: US Constellation: starlink operational
LEOCIRCULAR

当前视图

正在加载3D地球...

About Starlink 30288

Starlink 30288 (NORAD 57698) is a starlink constellation satellite (v2 mini) launched Aug 27, 2023 by SPXS of US. It operates in LEO, CIRCULAR orbit with a mass of 730.00 kg.

关于 Starlink 30288

正在加载描述...

即将过境

Passes for default location (London). Set your location on the main map for personalized predictions.

高度历史

Loading altitude history...

两行轨道根数

1 57698U 23129A 26171.31702746 .00002073 00000-0 84839-4 0 9997
2 57698 43.0032 258.6965 0001735 266.4700 93.5953 15.27581382156379
Epoch: Jun 20, 2026 • Age: 40 hours

当前状态

高度 494.0 km
速度 7.62 km/s
星下点 -40.06°S, 136.23°W
发射日期 Aug 27, 2023
运行时间 2.8 years
类型 internet

技术详情

分类 Payload
质量 730.00 kg
干质量 700.00 kg
总质量 730.00 kg
长度 0.30 m
直径 4.10 m
跨度 29.00 m
形状 Box + pan
制造商 SPXS
平台类型 Starlink V2M
阶段状态 In Orbit
所有者/国家 SPXS/US

Most Searched